sat.trackr.live / text

‹ back to catalog

STARLINK-36466

NORAD 67358 · 2026-003AA

PAYLOAD ACTIVE UNKNOWN

§ Identity

Operator
Country
US
Launch date
2026-01-09
Launch site
AFETR
Launch vehicle
Mass (kg)
RCS (m²)

Purposes: comms

External: N2YO · Heavens-Above · Gunter

§ Orbital elements

Epoch: 2026-09-18T07:05:39.077088Z

Period
94.27 min
Inclination
42.9987°
Eccentricity
0.0002098
Mean motion
15.27582618 rev/d
Perigee alt
481.6 km
Apogee alt
484.5 km
Semi-major
6,861.2 km
B*
3.7816e-4
RAAN
219.0523°
Arg perigee
254.1480°
Mean anomaly
105.9140°
Rev number
3,828

§ Raw data

STARLINK-364661 67358U 26003AA  26261.29559117  .00010159  00000+0  37816-3 0  99992 67358  42.9987 219.0523 0002098 254.1480 105.9140 15.27582618 38281

JSON: /api/v1/satellites/67358 · /tle

For live sub-satellite position, see the globe view (requires WebGL).

§ Visibility from observer

Set your observer location to see the next 7 days of passes ≥ 10°. The values pass through the URL so the page stays shareable.

No JS? Fill the form by hand. The geolocation button needs JavaScript.